This is the latest recevied weather packets stored in our database for station/object DC1SK-6. If no packets are shown the sender has not sent any weather packets the latest 10 day(s).
| Time | Temp. | Humidity | Pressure | Rain* | Wind** | Luminosity | Snow |
|---|---|---|---|---|---|---|---|
| 1777545459 | 14.44° C | 36% | - | 0 mm | - | 786 W/m² | - |
| 1777544859 | 14.44° C | 38% | - | 0 mm | - | 750 W/m² | - |
| 1777544309 | 14.44° C | 37% | - | 0 mm | - | 680 W/m² | - |
| 1777543814 | 14.44° C | 38% | - | 0 mm | - | 706 W/m² | - |
| 1777543334 | 14.44° C | 35% | - | 0 mm | - | 693 W/m² | - |
| 1777542739 | 14.44° C | 36% | - | 0 mm | - | 682 W/m² | - |
| 1777542194 | 13.89° C | 35% | - | 0 mm | - | 798 W/m² | - |
| 1777541709 | 13.89° C | 36% | - | 0 mm | - | 798 W/m² | - |
| 1777541219 | 13.89° C | 36% | - | 0 mm | - | 884 W/m² | - |
| 1777540639 | 13.89° C | 36% | - | 0 mm | - | 901 W/m² | - |
| 1777540064 | 13.33° C | 36% | - | 0 mm | - | 845 W/m² | - |
| 1777539539 | 12.78° C | 37% | - | 0 mm | - | 708 W/m² | - |
| 1777538994 | 12.22° C | 36% | - | 0 mm | - | 761 W/m² | - |
| 1777538469 | 12.22° C | 36% | - | 0 mm | - | 761 W/m² | - |
| 1777537909 | 12.78° C | 36% | - | 0 mm | - | 683 W/m² | - |
| 1777537354 | 12.78° C | 36% | - | 0 mm | - | 662 W/m² | - |
| 1777536779 | 12.22° C | 37% | - | 0 mm | - | 662 W/m² | - |
| 1777536189 | 12.22° C | 37% | - | 0 mm | - | 626 W/m² | - |
| 1777535704 | 11.67° C | 36% | - | 0 mm | - | 602 W/m² | - |
| 1777535129 | 11.11° C | 36% | - | 0 mm | - | 470 W/m² | - |
| 1777534589 | 11.11° C | 36% | - | 0 mm | - | 470 W/m² | - |
| 1777534014 | 11.11° C | 36% | - | 0 mm | - | 470 W/m² | - |
| 1777533429 | 11.11° C | 36% | - | 0 mm | - | 333 W/m² | - |
| 1777532934 | 11.11° C | 36% | - | 0 mm | - | 333 W/m² | - |
| 1777532391 | 11.11° C | 36% | - | 0 mm | - | 155 W/m² | - |
* Rain latest hour (hover to see other rain measurements)
** Current wind speed in m/s (hover to see current wind gust speed)